This is the latest recevied weather packets stored in our database for station/object MM1PTT-13. If no packets are shown the sender has not sent any weather packets the latest 10 day(s).
| Time | Temp. | Humidity | Pressure | Rain* | Wind** | Luminosity | Snow |
|---|---|---|---|---|---|---|---|
| 1777529442 | 7.78° C | 70% | 998 hPa | 0 mm | - | 55 W/m² | - |
| 1777529149 | 7.78° C | 70% | 998 hPa | 0 mm | - | 51 W/m² | - |
| 1777528842 | 7.78° C | 71% | 998 hPa | 0 mm | - | 49 W/m² | - |
| 1777528543 | 7.78° C | 71% | 998 hPa | 0 mm | - | 45 W/m² | - |
| 1777528242 | 7.22° C | 71% | 998 hPa | 0 mm | - | 43 W/m² | - |
| 1777527943 | 7.22° C | 70% | 998 hPa | 0 mm | - | 39 W/m² | - |
| 1777527643 | 7.22° C | 70% | 998.3 hPa | 0 mm | - | 36 W/m² | - |
| 1777527343 | 7.22° C | 71% | 998 hPa | 0 mm | - | 33 W/m² | - |
| 1777527043 | 7.22° C | 71% | 998 hPa | 0 mm | - | 31 W/m² | - |
| 1777526742 | 6.67° C | 71% | 998 hPa | 0 mm | - | 27 W/m² | - |
| 1777526442 | 6.67° C | 71% | 998 hPa | 0 mm | - | 24 W/m² | - |
| 1777526143 | 6.67° C | 71% | 998 hPa | 0 mm | - | 22 W/m² | - |
| 1777525589 | 6.67° C | 73% | 998.3 hPa | 0 mm | - | 17 W/m² | - |
| 1777525243 | 6.67° C | 74% | 998 hPa | 0 mm | - | 15 W/m² | - |
| 1777524942 | 6.67° C | 75% | 998 hPa | 0 mm | - | 15 W/m² | - |
| 1777524643 | 6.11° C | 75% | 998 hPa | 0 mm | - | 12 W/m² | - |
| 1777524342 | 6.11° C | 75% | 998 hPa | 0 mm | - | 10 W/m² | - |
| 1777524043 | 6.11° C | 75% | 998 hPa | 0 mm | - | 8 W/m² | - |
| 1777523742 | 6.67° C | 75% | 998.3 hPa | 0 mm | - | 6 W/m² | - |
| 1777523443 | 6.11° C | 76% | 998.3 hPa | 0 mm | - | 4 W/m² | - |
| 1777523143 | 6.11° C | 77% | 998.3 hPa | 0 mm | - | 3 W/m² | - |
| 1777522842 | 6.11° C | 78% | 998.3 hPa | 0 mm | - | 2 W/m² | - |
| 1777522542 | 6.11° C | 79% | 998.3 hPa | 0 mm | - | 1 W/m² | - |
| 1777522243 | 6.11° C | 80% | 998.3 hPa | 0 mm | - | 0 W/m² | - |
| 1777521945 | 5.56° C | 80% | 998.3 hPa | 0 mm | - | 0 W/m² | - |
* Rain latest hour (hover to see other rain measurements)
** Current wind speed in m/s (hover to see current wind gust speed)